Simultaneous Nadir Overpasses (SNOs) Predictions

Prediction of SNOs between AQUA and NOAA-19 Satellite Orbit:

Table of predicted SNOs for the next 14.0 days since TLE Epoch: 10/9/2021
Index Date (AQUA) Time (AQUA) Lat,Lon (AQUA) SZA (AQUA ) Date (NOAA-19) Time (NOAA-19) Lat,Lon (NOAA-19) SZA (NOAA-19 ) Distance(km) Time Diff (sec)
1 10/10/2021 22:14:10 -78.44, 5.77 94.11 10/10/2021 22:14:14 -78.42, 5.85 94.13 2.28 4
2 10/13/2021 03:47:53 78.40, 102.54 86.67 10/13/2021 03:47:25 78.40, 102.52 86.69 1.08 28
3 10/13/2021 04:37:20 -78.43, -89.99 93.28 10/13/2021 04:38:20 -78.43, -90.03 93.29 1.07 60
4 10/15/2021 09:21:36 -78.39,-160.85 92.52 10/15/2021 09:20:27 -78.40,-160.71 92.51 3.33 69
5 10/15/2021 10:11:04 78.44, 6.53 87.56 10/15/2021 10:11:31 78.40, 6.56 87.51 4.25 27
6 10/17/2021 15:44:46 -78.39, 103.33 91.69 10/17/2021 15:44:33 -78.40, 103.40 91.69 1.86 13
7 10/19/2021 21:18:29 78.38,-160.00 89.09 10/19/2021 21:17:43 78.38,-159.97 89.10 0.76 46
8 10/19/2021 22:07:56 -78.41, 7.48 90.87 10/19/2021 22:08:39 -78.41, 7.50 90.87 0.57 43
9 10/22/2021 03:41:39 78.40, 104.11 89.91 10/22/2021 03:41:48 78.40, 104.25 89.91 3.16 9



Historial Predications of SNOs between AQUA and NOAA-19
